Tracking 17147 objects as of 4-July-2015
HD Live streaming from Space Station

NANOSAT 1B

Track NANOSAT 1B now!
10-day predictions
NANOSAT 1B is classified as:


NORAD ID: 35685
Int'l Code: 2009-041E
Perigee: 584.8 km
Apogee: 667.6 km
Inclination: 98.1 °
Period: 97.1 minutes
Semi major axis: 6997 km
RCS: 0.248 m2 (medium)
Launch date: July 29, 2009
Source: Spain (SPN)

Nanosat 1B is a small testbed for the Spanish space agency. The satellite, stretching about 20 inches [50 cm] in diameter, will demonstrate basic space technologies.
Your satellite tracking list
Your tracking list is empty





NASA's NSSDC Master Catalog

Two Line Element Set (TLE):
1 35685U 09041E   15184.45981614  .00000296  00000-0  42320-4 0  9990
2 35685 098.1422 129.5693 0059144 205.8895 153.9356 14.83246803320286

Source of the keplerian elements: AFSPC

N2YO: 282